GW2094 Weather Reports


time (UTC)temp
C
wind
direction
speed
KPH
gust
KPH
rain 1hr
cm
rain 24hr
cm
rain mn
cm
humidity
%
barometer
mb
20260505130205 24 0.0 0.0 0.00 0.00 0.00 16 1013.5
20260505123954 24 0.0 0.0 0.00 0.00 0.00 26 1013.7
20260505122847 25 0.0 0.0 0.00 0.00 0.00 19 1013.8
20260505121739 25 0.0 0.0 0.00 0.00 0.00 18 1014.0
20260505120633 25 0.0 0.0 0.00 0.00 0.00 19 1014.1
20260505115526 25 0.0 0.0 0.00 0.00 0.00 19 1014.1
20260505114418 26 0.0 0.0 0.00 0.00 0.00 12 1014.1
20260505113311 27 0.0 0.0 0.00 0.00 0.00 13 1014.3
20260505111100 27 0.0 0.0 0.00 0.00 0.00 17 1014.4
20260505101525 23 0.0 0.0 0.00 0.00 0.00 5 1014.8
20260505095314 22 0.0 0.0 0.00 0.00 0.00 5 1014.9
20260505094207 22 0.0 0.0 0.00 0.00 0.00 5 1015.1
20260505091957 22 0.0 0.0 0.00 0.00 0.00 5 1015.1
20260505090850 21 0.0 0.0 0.00 0.00 0.00 5 1015.2
20260505085742 21 0.0 0.0 0.00 0.00 0.00 5 1015.2
20260505084635 21 0.0 0.0 0.00 0.00 0.00 5 1015.3
20260505083528 21 0.0 0.0 0.00 0.00 0.00 5 1015.5
20260505082420 21 0.0 0.0 0.00 0.00 0.00 5 1015.5
20260505081313 20 0.0 0.0 0.00 0.00 0.00 5 1015.6
20260505080206 20 0.0 0.0 0.00 0.00 0.00 5 1015.6
20260505075058 19 0.0 0.0 0.00 0.00 0.00 5 1015.6
20260505073951 19 0.0 0.0 0.00 0.00 0.00 5 1015.6
20260505072844 18 0.0 0.0 0.00 0.00 0.00 5 1015.7
20260505071737 18 0.0 0.0 0.00 0.00 0.00 5 1015.6
20260505070630 18 0.0 0.0 0.00 0.00 0.00 5 1015.6
20260505065523 17 0.0 0.0 0.00 0.00 0.00 5 1015.6
20260505064416 17 0.0 0.0 0.00 0.00 0.00 5 1015.6
20260505063309 16 0.0 0.0 0.00 0.00 0.00 5 1015.5
20260505062159 16 0.0 0.0 0.00 0.00 0.00 5 1015.5
20260505055948 15 0.0 0.0 0.00 0.00 0.00 5 1015.6
20260505053738 13 0.0 0.0 0.00 0.00 0.00 5 1015.6
20260505052631 13 0.0 0.0 0.00 0.00 0.00 5 1015.6
20260505051524 12 0.0 0.0 0.00 0.00 0.00 5 1015.6
20260505050417 12 0.0 0.0 0.00 0.00 0.00 5 1015.6
20260505040837 10 0.0 0.0 0.00 0.00 0.00 1015.5
20260505035730 10 0.0 0.0 0.00 0.00 0.00 1015.4
20260505032415 10 0.0 0.0 0.00 0.00 0.00 1015.4
20260505031309 9 0.0 0.0 0.00 0.00 0.00 1015.3
20260505025058 9 0.0 0.0 0.00 0.00 0.00 1015.2
20260505023950 9 0.0 0.0 0.00 0.00 0.00 1015.2
20260505022842 10 0.0 0.0 0.00 0.00 0.00 1015.3
20260505020632 10 0.0 0.0 0.00 0.00 0.00 1015.2
20260505013317 10 0.0 0.0 0.00 0.00 0.00 1015.3
20260505012211 10 0.0 0.0 0.00 0.00 0.00 1015.2
20260505011104 10 0.0 0.0 0.00 0.00 0.00 1015.3
20260505005957 11 0.0 0.0 0.00 0.00 0.00 1015.3
20260505004850 11 0.0 0.0 0.00 0.00 0.00 1015.2
20260505003742 11 0.0 0.0 0.00 0.00 0.00 1015.0
20260505001531 11 0.0 0.0 0.00 0.00 0.00 5 1015.0
20260505000425 11 0.0 0.0 0.00 0.00 0.00 5 1014.9
20260504235318 11 0.0 0.0 0.00 0.00 0.00 5 1014.9
20260504234210 11 0.0 0.0 0.00 0.00 0.00 5 1014.9
20260504233104 12 0.0 0.0 0.00 0.00 0.00 5 1014.9
20260504231956 12 0.0 0.0 0.00 0.00 0.00 5 1015.0
20260504224642 11 0.0 0.0 0.00 0.00 0.00 5 1015.0
20260504223535 12 0.0 0.0 0.00 0.00 0.00 5 1015.1
20260504222428 12 0.0 0.0 0.00 0.00 0.00 5 1015.1
20260504221321 12 0.0 0.0 0.00 0.00 0.00 5 1015.1
20260504220214 12 0.0 0.0 0.00 0.00 0.00 5 1015.2
20260504215107 12 0.0 0.0 0.00 0.00 0.00 5 1015.2
20260504214000 12 0.0 0.0 0.00 0.00 0.00 5 1015.2
20260504210646 12 0.0 0.0 0.00 0.00 0.00 5 1015.2
20260504204435 13 0.0 0.0 0.00 0.00 0.00 5 1014.9
20260504203328 13 0.0 0.0 0.00 0.00 0.00 5 1015.0
20260504202221 13 0.0 0.0 0.00 0.00 0.00 5 1015.0
20260504201114 13 0.0 0.0 0.00 0.00 0.00 5 1015.0
20260504200007 13 0.0 0.0 0.00 0.00 0.00 5 1015.0
20260504194900 13 0.0 0.0 0.00 0.00 0.00 5 1014.8
20260504193753 14 0.0 0.0 0.00 0.00 0.00 5 1014.8
20260504191542 14 0.0 0.0 0.00 0.00 0.00 5 1015.0
20260504190435 15 0.0 0.0 0.00 0.00 0.00 5 1015.0
20260504185328 15 0.0 0.0 0.00 0.00 0.00 5 1015.0
20260504184220 15 0.0 0.0 0.00 0.00 0.00 5 1015.0
20260504183113 15 0.0 0.0 0.00 0.00 0.00 5 1014.9
20260504182006 16 0.0 0.0 0.00 0.00 0.00 5 1014.8
20260504180859 16 0.0 0.0 0.00 0.00 0.00 5 1014.7
20260504175752 16 0.0 0.0 0.00 0.00 0.00 5 1014.7
20260504173542 17 0.0 0.0 0.00 0.00 0.00 5 1014.4
20260504172435 17 0.0 0.0 0.00 0.00 0.00 5 1014.5
20260504171328 17 0.0 0.0 0.00 0.00 0.00 5 1014.6
20260504170221 18 0.0 0.0 0.00 0.00 0.00 5 1014.4